Wind_Speed
34 34 35 36 37 37 37 36 38 38 38 37 36 37 37 38 38 38 39 39 39 38 38 37 37 36 36 37 37 37 36 36 35 34 34 35 35 36 35 35 35 35 35
34 34 34 34 35 37 38 38 38 39 39 38 38 37 37 38 38 38 38 38 38 38 38 37 36 36 35 35 36 36 36 35 35 34 34 34 35 35 35 35 35 35 35
33 35 35 34 35 36 37 38 38 39 40 40 40 39 38 37 36 37 37 36 36 36 36 36 36 36 35 35 36 36 36 36 36 35 35 34 35 35 35 35 35 35 34
32 33 34 34 34 35 35 36 37 38 39 39 39 39 38 37 35 35 35 35 35 35 36 36 35 35 35 36 36 36 36 36 37 37 37 36 36 36 36 35 34 33 33
30 32 32 33 34 35 35 35 36 36 37 38 38 38 37 37 35 34 34 35 36 35 35 36 36 35 35 35 36 36 36 36 36 37 37 37 37 36 35 34 33 32 32
28 30 31 31 32 33 34 35 36 36 36 37 38 38 38 37 36 35 34 34 35 37 36 36 37 36 36 36 36 37 36 36 36 37 37 36 35 34 33 32 32 32 31
27 28 29 29 30 31 32 34 35 36 36 36 38 39 39 38 38 37 36 35 36 36 36 36 35 35 36 36 36 37 37 36 37 37 35 35 34 33 32 32 32 32 31
26 27 28 29 30 31 32 33 34 35 35 35 37 38 39 38 38 38 37 36 37 37 37 37 37 36 37 36 36 36 36 37 37 36 35 34 33 32 32 32 31 31 30
26 27 28 29 30 32 33 33 34 35 35 35 35 35 37 38 38 39 38 38 38 37 37 38 38 38 37 36 37 37 36 36 35 35 34 33 33 32 32 32 31 31 30
28 28 29 30 31 32 33 34 34 35 35 36 36 36 37 38 39 39 38 38 37 36 37 37 38 39 39 37 37 36 35 35 35 34 33 32 32 32 32 31 30 30 30
28 29 30 31 32 32 33 34 34 35 35 36 37 37 37 38 38 38 38 37 36 36 36 36 36 37 37 38 37 36 36 35 35 34 33 33 32 31 30 30 29 29 28
29 29 30 31 31 32 33 33 34 34 35 36 36 37 37 37 37 37 37 37 36 36 36 36 36 36 36 36 36 35 35 34 34 33 32 31 30 30 29 29 28 27 26
31 31 31 32 32 32 33 33 34 35 35 36 36 37 37 36 36 36 37 37 37 37 37 37 36 36 36 36 35 35 35 34 33 33 32 31 29 29 28 27 26 26 25
32 33 33 33 33 33 34 34 34 35 35 35 35 35 36 36 37 37 37 37 37 37 37 35 35 35 36 35 34 34 34 34 33 31 30 29 28 28 27 26 26 25 24
32 33 33 34 34 34 34 35 35 35 35 35 35 34 34 35 35 36 36 37 37 37 36 35 34 34 34 34 33 33 32 32 31 30 29 28 27 27 26 25 25 24 23
32 33 33 33 34 34 34 34 34 34 34 34 33 33 33 33 33 34 35 35 35 35 34 34 33 33 33 32 32 32 31 31 30 29 28 27 26 26 25 24 24 23 22
31 32 32 32 32 32 33 33 33 33 33 33 32 32 32 31 31 32 32 33 33 33 33 33 33 32 31 31 30 30 30 29 28 28 28 27 26 25 25 24 23 22 20
32 32 33 32 32 31 31 31 31 31 31 31 32 31 31 30 29 29 30 31 31 31 32 32 32 31 30 30 29 29 28 28 27 27 27 27 26 25 24 23 21 20 19
32 32 32 32 31 31 30 30 30 30 30 30 30 30 30 29 28 28 29 30 30 30 30 30 30 30 29 29 28 28 28 27 27 27 27 27 26 25 24 22 21 20 19
32 32 32 31 31 30 29 28 28 28 29 29 29 30 30 29 28 28 28 28 29 29 29 29 29 30 29 29 28 28 28 27 27 27 26 26 25 25 24 23 21 21 20
31 31 31 30 29 29 29 28 28 28 28 28 28 28 28 28 28 28 28 28 28 28 28 28 28 28 28 28 27 26 26 27 27 26 25 24 23 24 24 23 22 22 21
30 30 30 30 29 29 28 28 28 27 27 27 27 27 27 27 27 27 27 27 27 27 27 27 27 27 25 25 25 25 24 24 24 24 23 22 21 22 22 23 23 22 21
29 29 29 29 28 28 28 28 28 27 27 26 26 27 27 27 27 27 27 27 27 26 26 25 25 24 23 23 23 23 23 22 22 22 22 21 21 21 21 21 21 21 19
28 28 28 28 28 28 28 28 27 27 27 26 26 26 27 26 26 26 26 25 25 25 24 24 23 22 22 21 21 21 22 22 21 21 21 20 20 20 20 20 20 19 19
28 28 27 27 27 27 27 27 27 26 26 26 25 25 25 25 25 25 25 24 24 24 23 23 22 21 21 21 21 21 21 21 20 20 21 20 20 19 19 19 19 19 18
28 28 28 28 27 27 26 26 26 25 25 25 24 24 24 24 24 24 24 24 23 23 23 22 22 21 21 21 21 21 21 21 20 20 20 20 20 19 19 19 19 19 18
Wind_Direction
257 258 258 257 258 258 257 256 256 257 259 261 263 264 264 265 266 268 268 270 271 271 272 272 274 275 275 278 279 280 283 284 285 286 288 290 292 292 292 294 295 296 297
260 259 260 260 259 259 258 258 257 257 259 261 264 265 266 266 266 267 268 269 271 272 272 272 274 274 275 277 278 279 281 283 285 286 289 291 292 292 293 294 296 297 297
261 260 260 261 261 260 260 259 259 258 259 261 262 264 265 266 266 267 268 270 270 271 271 272 273 273 274 274 276 278 280 282 284 285 289 291 293 293 293 293 295 296 297
262 261 261 262 262 261 261 260 261 260 260 260 261 262 264 266 267 267 266 268 269 270 271 272 272 272 272 272 274 276 279 280 282 284 287 289 292 293 294 294 294 295 295
264 263 263 263 264 263 263 263 263 264 263 261 262 263 264 265 266 267 266 268 269 270 271 271 271 272 273 273 273 275 277 279 281 283 287 289 291 292 293 294 293 293 293
267 266 265 266 266 265 264 264 263 264 266 265 264 264 264 265 265 267 268 269 270 270 270 271 272 273 274 273 273 273 276 278 281 283 285 288 289 290 291 293 291 291 293
269 269 269 269 268 268 267 266 265 265 267 267 265 264 265 266 266 266 267 270 270 270 270 271 272 273 274 273 272 273 276 278 281 283 284 286 288 289 289 290 290 292 294
272 271 271 271 270 270 270 269 267 266 266 267 267 266 266 266 266 267 268 269 271 271 271 272 273 273 273 272 272 274 276 277 279 281 283 283 284 285 286 288 289 290 293
274 273 274 274 273 272 271 271 269 269 269 269 269 268 267 266 266 267 268 268 269 270 271 271 272 272 272 272 271 273 275 276 277 280 280 281 282 282 285 286 287 288 291
276 277 276 276 275 274 273 272 271 272 272 271 270 270 268 267 267 267 267 268 268 269 271 271 270 271 271 272 272 272 273 274 276 277 278 279 280 281 283 284 284 286 288
278 279 279 278 276 275 274 273 272 273 273 272 271 271 269 267 266 265 265 267 268 269 271 271 271 271 271 272 272 271 272 272 273 274 275 277 277 280 282 282 283 285 288
280 281 281 281 278 276 275 274 273 274 273 272 271 271 270 268 264 263 263 266 267 269 270 272 272 272 272 273 272 271 271 271 272 273 274 275 276 277 279 279 281 283 287
280 281 281 282 281 279 276 275 275 275 275 274 272 271 269 268 266 264 264 265 267 269 271 272 272 271 271 272 271 271 271 271 272 272 273 273 273 274 275 277 279 280 283
281 282 282 282 280 279 276 275 275 275 275 274 273 272 270 268 266 265 264 264 266 268 269 270 271 271 270 270 270 271 271 270 270 269 269 269 269 270 271 274 276 276 278
281 282 282 282 282 280 278 276 276 276 276 276 274 273 271 269 267 265 264 264 266 267 267 269 269 269 269 268 268 270 270 271 270 267 267 267 267 268 268 271 273 275 275
281 282 282 283 282 281 279 278 277 276 276 275 273 273 273 270 267 264 264 264 266 267 267 267 268 267 267 267 267 268 269 269 268 267 266 266 266 266 266 268 270 271 273
283 284 284 284 284 281 279 277 277 277 277 274 272 272 272 270 267 264 264 264 266 266 267 267 267 267 268 267 267 267 267 267 266 266 265 264 264 264 263 264 266 265 266
284 285 285 285 284 282 280 279 277 277 277 275 274 273 272 269 266 264 264 264 266 266 266 265 265 265 267 267 265 265 264 264 264 265 264 263 262 260 260 260 260 260 259
284 285 285 284 284 282 281 279 277 276 276 275 273 272 271 269 267 266 265 265 265 266 265 265 264 263 265 265 264 262 262 261 263 264 264 263 261 258 256 256 255 256 255
285 285 285 284 284 282 280 279 278 277 276 274 273 271 269 266 267 267 266 266 266 266 266 266 265 264 262 263 262 261 260 259 261 262 261 261 259 256 254 252 252 253 253
285 285 285 284 283 282 281 280 279 278 276 272 271 269 267 267 268 268 266 266 266 267 267 266 265 264 263 261 259 258 259 258 257 258 257 257 255 254 253 251 250 251 251
286 286 285 283 282 281 280 278 278 278 277 273 270 268 267 267 268 267 267 266 267 267 266 265 264 263 262 260 259 257 256 255 254 254 253 254 252 251 251 251 251 249 248
287 287 285 283 281 280 280 278 277 277 277 275 271 269 268 267 267 266 266 266 266 266 264 262 261 260 259 258 257 255 253 252 252 251 251 251 251 249 250 251 251 249 247
286 286 285 284 282 281 281 279 277 277 277 276 274 272 270 269 267 265 264 264 264 263 261 259 258 258 258 256 256 253 250 249 250 249 247 247 248 247 248 249 247 246 245
286 287 286 285 284 283 282 281 278 277 277 276 275 275 274 271 267 265 262 261 260 258 258 257 255 256 255 253 253 250 247 247 247 246 245 244 245 245 245 245 243 242 242
286 287 286 284 284 283 283 281 279 277 277 276 274 273 273 271 267 264 261 259 257 256 255 254 253 254 253 250 250 248 245 244 244 243 242 242 243 244 243 241 240 240 239
Height
5664 5665 5667 5669 5670 5672 5674 5676 5678 5680 5682 5684 5685 5686 5688 5689 5690 5691 5692 5692 5692 5692 5692 5692 5693 5693 5694 5694 5693 5693 5693 5691 5691 5690 5688 5685 5683 5680 5677 5674 5671 5668 5665
5656 5657 5659 5660 5661 5663 5665 5666 5668 5670 5672 5674 5675 5676 5678 5679 5680 5681 5681 5682 5682 5682 5682 5683 5683 5683 5684 5684 5684 5684 5684 5683 5682 5681 5679 5677 5674 5671 5668 5665 5662 5659 5656
5648 5649 5650 5651 5652 5654 5655 5657 5658 5660 5662 5664 5665 5666 5668 5669 5670 5671 5671 5672 5672 5673 5673 5673 5674 5674 5674 5674 5674 5674 5674 5673 5673 5672 5670 5668 5665 5662 5659 5657 5653 5651 5648
5639 5640 5641 5642 5643 5644 5646 5647 5649 5650 5652 5653 5655 5656 5657 5659 5660 5661 5662 5662 5663 5663 5663 5664 5664 5664 5664 5665 5665 5665 5664 5664 5663 5662 5661 5658 5656 5653 5650 5647 5645 5642 5639
5631 5632 5633 5634 5634 5636 5637 5638 5639 5640 5642 5643 5645 5646 5647 5649 5650 5651 5652 5652 5653 5654 5654 5654 5654 5654 5654 5655 5655 5655 5654 5654 5653 5652 5650 5648 5646 5643 5640 5638 5636 5633 5631
5623 5624 5624 5625 5626 5627 5627 5629 5630 5631 5632 5633 5635 5636 5637 5638 5639 5640 5641 5642 5643 5643 5644 5644 5644 5644 5645 5645 5644 5645 5645 5644 5643 5642 5640 5638 5636 5633 5631 5628 5627 5625 5624
5615 5616 5616 5617 5617 5618 5619 5620 5621 5622 5623 5624 5625 5626 5627 5628 5629 5630 5631 5632 5633 5633 5633 5634 5634 5634 5634 5634 5634 5634 5634 5634 5633 5632 5630 5628 5627 5625 5623 5621 5618 5616 5615
5608 5608 5609 5609 5609 5610 5610 5611 5612 5613 5613 5614 5615 5615 5616 5617 5618 5619 5620 5621 5622 5622 5622 5623 5623 5624 5624 5624 5624 5624 5624 5624 5623 5622 5621 5620 5618 5616 5614 5612 5610 5609 5607
5601 5600 5600 5600 5601 5601 5601 5601 5602 5603 5603 5604 5604 5605 5606 5607 5607 5608 5609 5610 5611 5611 5612 5612 5613 5613 5613 5613 5614 5614 5614 5613 5612 5612 5611 5610 5608 5607 5606 5604 5602 5601 5599
5593 5593 5592 5592 5592 5592 5592 5592 5592 5593 5593 5594 5594 5594 5595 5595 5596 5597 5597 5598 5600 5601 5601 5602 5602 5602 5602 5602 5603 5603 5603 5603 5602 5602 5601 5600 5599 5598 5597 5596 5594 5593 5591
5585 5585 5584 5583 5583 5583 5583 5583 5583 5583 5583 5583 5583 5584 5583 5584 5584 5585 5586 5587 5589 5590 5590 5591 5591 5591 5591 5592 5592 5592 5592 5592 5592 5592 5591 5591 5590 5589 5588 5587 5586 5584 5583
5578 5577 5576 5575 5574 5574 5573 5573 5573 5573 5573 5573 5572 5572 5572 5572 5573 5574 5575 5576 5578 5579 5580 5580 5580 5581 5581 5581 5581 5581 5581 5582 5582 5582 5582 5581 5581 5581 5580 5579 5577 5576 5575
5569 5568 5567 5566 5565 5564 5564 5563 5563 5563 5562 5562 5562 5561 5561 5561 5562 5563 5564 5566 5567 5568 5569 5569 5570 5570 5570 5570 5570 5570 5570 5571 5571 5572 5572 5572 5571 5571 5571 5570 5569 5568 5567
5560 5559 5558 5557 5556 5555 5554 5553 5553 5552 5552 5551 5551 5550 5550 5551 5551 5552 5554 5555 5556 5557 5558 5558 5559 5559 5559 5560 5560 5560 5560 5560 5561 5561 5562 5562 5562 5562 5563 5563 5562 5561 5561
5551 5550 5549 5547 5546 5545 5544 5543 5542 5542 5541 5541 5540 5540 5540 5540 5540 5541 5542 5544 5545 5546 5547 5548 5548 5549 5549 5549 5549 5549 5550 5550 5551 5552 5552 5552 5553 5553 5554 5554 5554 5554 5554
5541 5540 5539 5537 5536 5535 5534 5533 5531 5531 5530 5530 5529 5529 5529 5529 5529 5530 5531 5533 5534 5535 5536 5537 5538 5538 5539 5539 5539 5540 5540 5540 5541 5542 5543 5544 5544 5545 5546 5546 5547 5547 5547
5532 5531 5529 5528 5526 5525 5524 5523 5522 5522 5520 5520 5519 5519 5519 5519 5519 5520 5521 5523 5524 5525 5526 5526 5527 5528 5528 5529 5529 5530 5531 5531 5532 5533 5534 5535 5536 5537 5537 5538 5539 5539 5540
5523 5521 5520 5518 5516 5515 5514 5513 5512 5512 5511 5510 5509 5509 5509 5510 5510 5511 5512 5513 5514 5514 5515 5516 5516 5518 5518 5519 5520 5521 5522 5523 5524 5525 5526 5527 5528 5529 5530 5531 5532 5532 5533
5513 5511 5510 5508 5507 5505 5504 5503 5503 5502 5501 5501 5500 5500 5500 5500 5501 5501 5502 5503 5504 5505 5505 5506 5507 5508 5508 5509 5510 5512 5513 5515 5516 5517 5518 5519 5520 5521 5522 5523 5525 5526 5527
5503 5502 5500 5499 5498 5496 5495 5494 5493 5493 5492 5492 5492 5492 5491 5492 5492 5493 5493 5494 5495 5495 5496 5496 5497 5498 5499 5500 5501 5502 5504 5506 5507 5508 5510 5511 5512 5513 5515 5517 5518 5520 5521
5494 5492 5491 5489 5488 5487 5486 5485 5485 5484 5483 5483 5483 5483 5483 5483 5484 5484 5484 5485 5485 5486 5487 5487 5488 5489 5490 5491 5492 5493 5495 5497 5499 5500 5502 5503 5504 5506 5508 5510 5511 5513 5514
5485 5483 5481 5480 5479 5478 5477 5477 5476 5475 5475 5474 5474 5474 5474 5474 5475 5475 5475 5476 5476 5477 5478 5479 5479 5481 5481 5482 5484 5485 5487 5489 5490 5492 5494 5496 5498 5499 5501 5503 5505 5506 5508
5475 5474 5472 5471 5470 5469 5468 5468 5467 5467 5466 5465 5465 5465 5465 5465 5466 5466 5467 5467 5468 5468 5469 5470 5471 5472 5473 5474 5476 5477 5479 5481 5483 5485 5487 5489 5491 5493 5495 5497 5499 5500 5502
5467 5465 5464 5462 5461 5460 5459 5458 5458 5457 5457 5457 5456 5456 5456 5456 5457 5457 5458 5458 5459 5460 5461 5462 5463 5464 5466 5467 5468 5470 5472 5474 5476 5478 5480 5482 5485 5487 5489 5491 5493 5495 5497
5458 5456 5455 5454 5453 5452 5451 5450 5449 5449 5448 5448 5448 5447 5447 5447 5448 5448 5449 5450 5451 5452 5453 5454 5456 5457 5458 5460 5461 5463 5465 5467 5469 5471 5474 5476 5479 5481 5483 5485 5487 5490 5492
5449 5448 5446 5445 5444 5443 5442 5441 5440 5440 5439 5439 5439 5439 5439 5439 5439 5440 5441 5442 5443 5444 5445 5447 5448 5450 5451 5453 5455 5456 5458 5460 5463 5465 5467 5470 5473 5475 5477 5480 5482 5484 5487